Time,TemperatureF,DewpointF,PressureIn,WindDirection,WindDirectionDegrees,WindSpeedMPH,WindSpeedGustMPH,Humidity,HourlyPrecipIn,Conditions,Clouds,dailyrainin,SoftwareType,DateUTC
2013-02-18 00:01:00,65.6,57.8,29.95,SSE,163,12.0,13.0,76,0.00,,---,0.00,VWS V14.01,2013-02-18 06:01:00,
2013-02-18 00:06:00,65.6,57.8,29.95,SSW,208,9.0,18.0,76,0.00,,---,0.00,VWS V14.01,2013-02-18 06:06:00,
2013-02-18 00:11:00,65.8,58.0,29.95,SE,126,8.0,18.0,76,0.00,,---,0.00,VWS V14.01,2013-02-18 06:11:00,
2013-02-18 00:16:00,65.8,58.0,29.96,South,177,8.0,9.0,76,0.00,,---,0.00,VWS V14.01,2013-02-18 06:16:00,
2013-02-18 00:21:00,65.8,58.0,29.96,SE,131,8.0,19.0,76,0.00,,---,0.00,VWS V14.01,2013-02-18 06:21:00,
2013-02-18 00:26:00,65.8,58.0,29.96,SE,132,8.0,19.0,76,0.00,,---,0.00,VWS V14.01,2013-02-18 06:26:00,
2013-02-18 00:31:00,65.8,58.0,29.95,ESE,118,13.0,14.0,76,0.00,,---,0.00,VWS V14.01,2013-02-18 06:31:00,
2013-02-18 00:36:00,65.8,58.4,29.95,SE,136,6.0,17.0,77,0.00,,---,0.00,VWS V14.01,2013-02-18 06:36:00,
2013-02-18 00:41:00,65.8,58.4,29.95,SE,146,10.0,17.0,77,0.00,,---,0.00,VWS V14.01,2013-02-18 06:41:00,
2013-02-18 00:46:00,65.8,58.4,29.94,SE,128,12.0,13.0,77,0.00,,---,0.00,VWS V14.01,2013-02-18 06:46:00,
2013-02-18 00:51:00,65.8,58.4,29.94,SSE,156,8.0,18.0,77,0.00,,---,0.00,VWS V14.01,2013-02-18 06:51:00,
2013-02-18 00:56:00,65.6,58.2,29.94,South,172,12.0,20.0,77,0.00,,---,0.00,VWS V14.01,2013-02-18 06:56:00,
2013-02-18 01:01:00,65.6,58.6,29.94,SSW,193,6.0,12.0,78,0.00,,---,0.00,VWS V14.01,2013-02-18 07:01:00,
2013-02-18 01:06:00,65.6,58.6,29.94,South,172,9.0,18.0,78,0.00,,---,0.00,VWS V14.01,2013-02-18 07:06:00,
2013-02-18 01:11:00,65.6,58.6,29.94,SSE,148,4.0,18.0,78,0.00,,---,0.00,VWS V14.01,2013-02-18 07:11:00,
2013-02-18 01:16:00,65.6,58.6,29.95,SE,142,8.0,14.0,78,0.00,,---,0.00,VWS V14.01,2013-02-18 07:16:00,
2013-02-18 01:21:00,65.6,58.6,29.95,SE,132,10.0,18.0,78,0.00,,---,0.00,VWS V14.01,2013-02-18 07:21:00,
2013-02-18 01:26:00,65.6,58.6,29.95,ESE,118,13.0,18.0,78,0.00,,---,0.00,VWS V14.01,2013-02-18 07:26:00,
2013-02-18 01:31:00,65.8,59.1,29.93,SE,141,6.0,18.0,79,0.00,,---,0.00,VWS V14.01,2013-02-18 07:31:00,
2013-02-18 01:36:00,65.8,59.1,29.93,SE,135,7.0,18.0,79,0.00,,---,0.00,VWS V14.01,2013-02-18 07:36:00,
2013-02-18 01:41:00,65.8,59.1,29.93,South,190,7.0,18.0,79,0.00,,---,0.00,VWS V14.01,2013-02-18 07:41:00,
2013-02-18 01:46:00,65.8,59.1,29.93,SE,129,7.0,15.0,79,0.00,,---,0.00,VWS V14.01,2013-02-18 07:46:00,
2013-02-18 01:51:00,65.8,59.1,29.93,SE,146,7.0,15.0,79,0.00,,---,0.00,VWS V14.01,2013-02-18 07:51:00,
2013-02-18 01:56:00,65.8,59.1,29.93,SE,132,8.0,17.0,79,0.00,,---,0.00,VWS V14.01,2013-02-18 07:56:00,
2013-02-18 02:01:00,65.8,59.1,29.92,SSE,153,5.0,10.0,79,0.00,,---,0.00,VWS V14.01,2013-02-18 08:01:00,
2013-02-18 02:06:00,65.8,59.1,29.92,SE,132,6.0,19.0,79,0.00,,---,0.00,VWS V14.01,2013-02-18 08:06:00,
2013-02-18 02:11:00,65.8,59.1,29.92,South,174,7.0,19.0,79,0.00,,---,0.00,VWS V14.01,2013-02-18 08:11:00,
2013-02-18 02:16:00,65.8,59.1,29.92,SE,128,6.0,19.0,79,0.00,,---,0.00,VWS V14.01,2013-02-18 08:16:00,
2013-02-18 02:21:00,65.8,59.1,29.92,SSE,159,9.0,19.0,79,0.00,,---,0.00,VWS V14.01,2013-02-18 08:21:00,
2013-02-18 02:26:00,65.8,59.1,29.92,SE,128,14.0,19.0,79,0.00,,---,0.00,VWS V14.01,2013-02-18 08:26:00,
2013-02-18 02:31:00,65.8,59.1,29.91,SSE,149,8.0,13.0,79,0.00,,---,0.00,VWS V14.01,2013-02-18 08:31:00,
2013-02-18 02:36:00,65.8,59.1,29.91,SSE,158,7.0,15.0,79,0.00,,---,0.00,VWS V14.01,2013-02-18 08:36:00,
2013-02-18 02:41:00,66.0,59.3,29.91,South,176,8.0,19.0,79,0.00,,---,0.00,VWS V14.01,2013-02-18 08:41:00,
2013-02-18 02:46:00,66.0,59.3,29.91,SSE,166,8.0,14.0,79,0.00,,---,0.00,VWS V14.01,2013-02-18 08:46:00,
2013-02-18 02:51:00,66.0,59.3,29.91,SE,146,12.0,17.0,79,0.00,,---,0.00,VWS V14.01,2013-02-18 08:51:00,
2013-02-18 02:56:00,65.8,59.5,29.91,South,190,7.0,17.0,80,0.00,,---,0.00,VWS V14.01,2013-02-18 08:56:00,
2013-02-18 03:01:00,65.8,59.5,29.91,South,169,8.0,14.0,80,0.00,,---,0.00,VWS V14.01,2013-02-18 09:01:00,
2013-02-18 03:06:00,65.8,59.5,29.91,SSE,148,7.0,14.0,80,0.00,,---,0.00,VWS V14.01,2013-02-18 09:06:00,
2013-02-18 03:11:00,65.8,59.5,29.91,South,176,11.0,14.0,80,0.00,,---,0.00,VWS V14.01,2013-02-18 09:11:00,
2013-02-18 03:16:00,65.8,59.5,29.89,South,173,7.0,10.0,80,0.00,,---,0.00,VWS V14.01,2013-02-18 09:16:00,
2013-02-18 03:21:00,65.8,59.5,29.89,SSE,153,9.0,14.0,80,0.00,,---,0.00,VWS V14.01,2013-02-18 09:21:00,
2013-02-18 03:26:00,66.0,59.7,29.89,SSE,158,11.0,17.0,80,0.00,,---,0.00,VWS V14.01,2013-02-18 09:26:00,
2013-02-18 03:31:00,66.0,60.0,29.89,SE,132,8.0,14.0,81,0.00,,---,0.00,VWS V14.01,2013-02-18 09:31:00,
2013-02-18 03:36:00,65.8,59.8,29.89,SE,124,8.0,19.0,81,0.00,,---,0.00,VWS V14.01,2013-02-18 09:36:00,
2013-02-18 03:41:00,65.8,59.8,29.89,South,174,7.0,19.0,81,0.00,,---,0.00,VWS V14.01,2013-02-18 09:41:00,
2013-02-18 03:46:00,65.8,59.8,29.88,SE,145,7.0,11.0,81,0.00,,---,0.00,VWS V14.01,2013-02-18 09:46:00,
2013-02-18 03:51:00,65.8,59.8,29.88,SSE,148,9.0,14.0,81,0.00,,---,0.00,VWS V14.01,2013-02-18 09:51:00,
2013-02-18 03:56:00,65.8,60.2,29.88,SE,142,7.0,14.0,82,0.00,,---,0.00,VWS V14.01,2013-02-18 09:56:00,
2013-02-18 04:01:00,65.8,60.2,29.88,SE,129,8.0,14.0,82,0.00,,---,0.00,VWS V14.01,2013-02-18 10:01:00,
2013-02-18 04:06:00,65.8,60.2,29.88,SE,135,7.0,15.0,82,0.00,,---,0.00,VWS V14.01,2013-02-18 10:06:00,
2013-02-18 04:12:00,66.0,60.3,29.88,SE,141,12.0,15.0,82,0.00,,---,0.00,VWS V14.01,2013-02-18 10:12:00,
2013-02-18 04:17:00,66.0,60.3,29.88,SSE,159,5.0,13.0,82,0.00,,---,0.00,VWS V14.01,2013-02-18 10:17:00,
2013-02-18 04:22:00,66.0,60.3,29.88,South,170,9.0,18.0,82,0.00,,---,0.00,VWS V14.01,2013-02-18 10:22:00,
2013-02-18 04:27:00,65.8,60.2,29.88,SSE,153,12.0,18.0,82,0.00,,---,0.00,VWS V14.01,2013-02-18 10:27:00,
2013-02-18 04:32:00,65.8,60.2,29.87,South,170,5.0,13.0,82,0.00,,---,0.00,VWS V14.01,2013-02-18 10:32:00,
2013-02-18 04:37:00,65.8,60.2,29.87,South,177,8.0,18.0,82,0.00,,---,0.00,VWS V14.01,2013-02-18 10:37:00,
2013-02-18 04:42:00,65.8,60.2,29.87,SE,129,12.0,18.0,82,0.00,,---,0.00,VWS V14.01,2013-02-18 10:42:00,
2013-02-18 04:47:00,65.8,60.2,29.86,East,101,12.0,15.0,82,0.00,,---,0.00,VWS V14.01,2013-02-18 10:47:00,
2013-02-18 04:52:00,66.0,60.3,29.86,South,170,8.0,15.0,82,0.00,,---,0.00,VWS V14.01,2013-02-18 10:52:00,
2013-02-18 04:57:00,66.0,60.3,29.86,South,183,9.0,15.0,82,0.00,,---,0.00,VWS V14.01,2013-02-18 10:57:00,
2013-02-18 05:02:00,66.0,60.3,29.86,SE,139,12.0,15.0,82,0.00,,---,0.00,VWS V14.01,2013-02-18 11:02:00,
2013-02-18 05:07:00,66.1,60.5,29.86,ESE,122,8.0,15.0,82,0.00,,---,0.00,VWS V14.01,2013-02-18 11:07:00,
2013-02-18 05:12:00,66.1,60.5,29.86,SSE,166,4.0,17.0,82,0.00,,---,0.00,VWS V14.01,2013-02-18 11:12:00,
2013-02-18 05:17:00,66.1,60.5,29.86,SSE,153,7.0,13.0,82,0.00,,---,0.00,VWS V14.01,2013-02-18 11:17:00,
2013-02-18 05:22:00,66.3,60.7,29.86,ESE,118,9.0,20.0,82,0.00,,---,0.00,VWS V14.01,2013-02-18 11:22:00,
2013-02-18 05:27:00,66.3,60.7,29.86,SE,143,11.0,20.0,82,0.00,,---,0.00,VWS V14.01,2013-02-18 11:27:00,
2013-02-18 05:32:00,66.3,60.7,29.86,South,190,11.0,18.0,82,0.00,,---,0.00,VWS V14.01,2013-02-18 11:32:00,
2013-02-18 05:37:00,66.4,60.7,29.86,SSE,153,14.0,19.0,82,0.00,,---,0.00,VWS V14.01,2013-02-18 11:37:00,
2013-02-18 05:42:00,66.4,60.7,29.86,SE,142,13.0,19.0,82,0.00,,---,0.00,VWS V14.01,2013-02-18 11:42:00,
2013-02-18 05:47:00,66.4,60.7,29.86,South,182,7.0,13.0,82,0.00,,---,0.00,VWS V14.01,2013-02-18 11:47:00,
2013-02-18 05:52:00,66.4,60.7,29.86,South,191,9.0,15.0,82,0.00,,---,0.00,VWS V14.01,2013-02-18 11:52:00,
2013-02-18 05:57:00,66.6,60.9,29.86,South,177,6.0,15.0,82,0.00,,---,0.00,VWS V14.01,2013-02-18 11:57:00,
2013-02-18 06:02:00,66.4,61.1,29.86,SSE,156,11.0,14.0,83,0.00,,---,0.00,VWS V14.01,2013-02-18 12:02:00,
2013-02-18 06:07:00,66.4,61.1,29.86,SE,145,7.0,15.0,83,0.00,,---,0.00,VWS V14.01,2013-02-18 12:07:00,
2013-02-18 06:12:00,66.4,61.1,29.86,SE,129,9.0,15.0,83,0.00,,---,0.00,VWS V14.01,2013-02-18 12:12:00,
2013-02-18 06:17:00,66.4,61.1,29.86,SE,139,12.0,15.0,83,0.00,,---,0.00,VWS V14.01,2013-02-18 12:17:00,
2013-02-18 06:22:00,66.4,61.1,29.86,SE,143,5.0,16.0,83,0.00,,---,0.00,VWS V14.01,2013-02-18 12:22:00,
2013-02-18 06:27:00,66.6,61.3,29.86,SE,141,11.0,17.0,83,0.00,,---,0.00,VWS V14.01,2013-02-18 12:27:00,
2013-02-18 06:32:00,66.6,61.3,29.86,SE,128,10.0,11.0,83,0.00,,---,0.00,VWS V14.01,2013-02-18 12:32:00,
2013-02-18 06:37:00,66.6,61.3,29.86,SSE,150,8.0,19.0,83,0.00,,---,0.00,VWS V14.01,2013-02-18 12:37:00,
2013-02-18 06:42:00,66.8,61.5,29.86,SSE,148,7.0,19.0,83,0.00,,---,0.00,VWS V14.01,2013-02-18 12:42:00,
2013-02-18 06:47:00,66.8,61.5,29.86,SSE,156,10.0,13.0,83,0.00,,---,0.00,VWS V14.01,2013-02-18 12:47:00,
2013-02-18 06:52:00,66.8,61.5,29.86,SE,146,11.0,18.0,83,0.00,,---,0.00,VWS V14.01,2013-02-18 12:52:00,
2013-02-18 06:57:00,66.8,61.5,29.86,SE,146,7.0,21.0,83,0.00,,---,0.00,VWS V14.01,2013-02-18 12:57:00,
2013-02-18 07:02:00,66.8,61.5,29.86,SE,142,12.0,14.0,83,0.00,,---,0.00,VWS V14.01,2013-02-18 13:02:00,
2013-02-18 07:07:00,66.9,61.6,29.86,SE,135,12.0,21.0,83,0.00,,---,0.00,VWS V14.01,2013-02-18 13:07:00,
2013-02-18 07:12:00,66.9,61.6,29.86,SE,138,8.0,21.0,83,0.00,,---,0.00,VWS V14.01,2013-02-18 13:12:00,
2013-02-18 07:17:00,66.9,61.6,29.86,SE,132,8.0,15.0,83,0.00,,---,0.00,VWS V14.01,2013-02-18 13:17:00,
2013-02-18 07:22:00,66.9,61.6,29.86,ESE,117,12.0,19.0,83,0.00,,---,0.00,VWS V14.01,2013-02-18 13:22:00,
2013-02-18 07:27:00,66.9,61.6,29.86,SSE,162,6.0,19.0,83,0.00,,---,0.00,VWS V14.01,2013-02-18 13:27:00,
2013-02-18 07:32:00,67.1,61.8,29.86,SE,145,13.0,17.0,83,0.00,,---,0.00,VWS V14.01,2013-02-18 13:32:00,
2013-02-18 07:37:00,67.1,61.8,29.86,SSE,149,10.0,19.0,83,0.00,,---,0.00,VWS V14.01,2013-02-18 13:37:00,
2013-02-18 07:43:00,67.1,61.8,29.86,SSE,167,12.0,19.0,83,0.00,,---,0.00,VWS V14.01,2013-02-18 13:43:00,
2013-02-18 07:48:00,67.3,62.0,29.87,SE,139,20.0,20.0,83,0.00,,---,0.00,VWS V14.01,2013-02-18 13:48:00,
2013-02-18 07:52:00,67.3,62.0,29.87,SE,146,6.0,20.0,83,0.00,,---,0.00,VWS V14.01,2013-02-18 13:52:00,
2013-02-18 07:58:00,67.3,62.0,29.87,South,172,9.0,20.0,83,0.00,,---,0.00,VWS V14.01,2013-02-18 13:58:00,
2013-02-18 08:02:00,67.3,62.0,29.87,SE,124,9.0,14.0,83,0.00,,---,0.00,VWS V14.01,2013-02-18 14:02:00,
2013-02-18 08:07:00,67.3,62.0,29.87,SSE,163,6.0,15.0,83,0.00,,---,0.00,VWS V14.01,2013-02-18 14:07:00,
2013-02-18 08:12:00,67.3,62.0,29.87,SSE,162,3.0,15.0,83,0.00,,---,0.00,VWS V14.01,2013-02-18 14:12:00,
2013-02-18 08:17:00,67.3,62.0,29.88,SSE,165,12.0,20.0,83,0.00,,---,0.00,VWS V14.01,2013-02-18 14:17:00,
2013-02-18 08:23:00,67.3,62.0,29.88,SSE,156,12.0,20.0,83,0.00,,---,0.00,VWS V14.01,2013-02-18 14:23:00,
2013-02-18 08:28:00,67.3,62.3,29.88,SSE,158,6.0,20.0,84,0.00,,---,0.00,VWS V14.01,2013-02-18 14:28:00,
2013-02-18 08:33:00,67.3,62.3,29.88,SSE,153,14.0,14.0,84,0.00,,---,0.00,VWS V14.01,2013-02-18 14:33:00,
2013-02-18 08:38:00,67.3,62.3,29.88,SE,146,5.0,14.0,84,0.00,,---,0.00,VWS V14.01,2013-02-18 14:38:00,
2013-02-18 08:43:00,67.3,62.3,29.88,South,182,8.0,16.0,84,0.00,,---,0.00,VWS V14.01,2013-02-18 14:43:00,
2013-02-18 08:48:00,67.3,62.3,29.89,South,169,7.0,14.0,84,0.00,,---,0.00,VWS V14.01,2013-02-18 14:48:00,
2013-02-18 08:53:00,67.4,62.4,29.89,ESE,118,15.0,18.0,84,0.00,,---,0.00,VWS V14.01,2013-02-18 14:53:00,
2013-02-18 08:58:00,67.6,62.3,29.89,SSE,167,6.0,18.0,83,0.00,,---,0.00,VWS V14.01,2013-02-18 14:58:00,
2013-02-18 09:03:00,67.6,62.3,29.89,South,170,7.0,18.0,83,0.00,,---,0.00,VWS V14.01,2013-02-18 15:03:00,
2013-02-18 09:08:00,67.6,62.6,29.89,SE,132,7.0,18.0,84,0.00,,---,0.00,VWS V14.01,2013-02-18 15:08:00,
2013-02-18 09:13:00,67.6,62.6,29.89,SSE,149,7.0,18.0,84,0.00,,---,0.00,VWS V14.01,2013-02-18 15:13:00,
2013-02-18 09:18:00,67.8,62.5,29.89,South,180,12.0,17.0,83,0.00,,---,0.00,VWS V14.01,2013-02-18 15:18:00,
2013-02-18 09:23:00,67.8,62.5,29.89,South,184,3.0,17.0,83,0.00,,---,0.00,VWS V14.01,2013-02-18 15:23:00,
2013-02-18 09:28:00,67.9,62.5,29.89,SSW,203,12.0,21.0,83,0.00,,---,0.00,VWS V14.01,2013-02-18 15:28:00,
2013-02-18 09:33:00,68.3,62.6,29.89,SE,125,7.0,15.0,82,0.00,,---,0.00,VWS V14.01,2013-02-18 15:33:00,
2013-02-18 09:38:00,68.6,62.9,29.89,SSE,152,8.0,19.0,82,0.00,,---,0.00,VWS V14.01,2013-02-18 15:38:00,
2013-02-18 09:43:00,68.8,63.1,29.89,SSE,160,6.0,21.0,82,0.00,,---,0.00,VWS V14.01,2013-02-18 15:43:00,
2013-02-18 09:48:00,68.9,62.8,29.89,SSE,167,6.0,13.0,81,0.00,,---,0.00,VWS V14.01,2013-02-18 15:48:00,
2013-02-18 09:53:00,69.1,63.0,29.89,South,170,11.0,20.0,81,0.00,,---,0.00,VWS V14.01,2013-02-18 15:53:00,
2013-02-18 09:58:00,69.6,63.2,29.89,South,173,17.0,20.0,80,0.00,,---,0.00,VWS V14.01,2013-02-18 15:58:00,
2013-02-18 10:03:00,69.6,63.2,29.89,SSE,167,7.0,14.0,80,0.00,,---,0.00,VWS V14.01,2013-02-18 16:03:00,
2013-02-18 10:08:00,69.4,63.0,29.89,South,177,7.0,17.0,80,0.00,,---,0.00,VWS V14.01,2013-02-18 16:08:00,
2013-02-18 10:13:00,69.6,63.2,29.89,East,95,14.0,18.0,80,0.00,,---,0.00,VWS V14.01,2013-02-18 16:13:00,
2013-02-18 10:18:00,69.8,63.0,29.88,SSE,165,8.0,18.0,79,0.00,,---,0.00,VWS V14.01,2013-02-18 16:18:00,
2013-02-18 10:23:00,70.1,63.3,29.88,ESE,119,8.0,18.0,79,0.00,,---,0.00,VWS V14.01,2013-02-18 16:23:00,
2013-02-18 10:28:00,70.3,63.5,29.88,SSE,149,13.0,20.0,79,0.00,,---,0.00,VWS V14.01,2013-02-18 16:28:00,
2013-02-18 10:33:00,70.4,63.2,29.88,South,174,7.0,15.0,78,0.00,,---,0.00,VWS V14.01,2013-02-18 16:33:00,
2013-02-18 10:38:00,70.6,63.4,29.88,SSE,165,12.0,18.0,78,0.00,,---,0.00,VWS V14.01,2013-02-18 16:38:00,
2013-02-18 10:43:00,70.9,63.7,29.88,South,190,12.0,21.0,78,0.00,,---,0.00,VWS V14.01,2013-02-18 16:43:00,
2013-02-18 10:48:00,71.5,63.9,29.88,SSE,150,5.0,15.0,77,0.00,,---,0.00,VWS V14.01,2013-02-18 16:48:00,
2013-02-18 10:53:00,71.5,63.9,29.88,SSW,196,6.0,22.0,77,0.00,,---,0.00,VWS V14.01,2013-02-18 16:53:00,
2013-02-18 10:58:00,71.3,63.7,29.88,South,172,13.0,22.0,77,0.00,,---,0.00,VWS V14.01,2013-02-18 16:58:00,
2013-02-18 11:03:00,71.6,64.0,29.88,SE,135,11.0,20.0,77,0.00,,---,0.00,VWS V14.01,2013-02-18 17:03:00,
2013-02-18 11:08:00,71.6,63.6,29.88,SSE,153,7.0,25.0,76,0.00,,---,0.00,VWS V14.01,2013-02-18 17:08:00,
2013-02-18 11:13:00,72.1,64.5,29.88,SW,214,13.0,25.0,77,0.00,,---,0.00,VWS V14.01,2013-02-18 17:13:00,
2013-02-18 11:18:00,72.3,63.9,29.88,SSE,166,19.0,23.0,75,0.00,,---,0.00,VWS V14.01,2013-02-18 17:18:00,
2013-02-18 11:23:00,72.3,63.9,29.88,South,184,8.0,23.0,75,0.00,,---,0.00,VWS V14.01,2013-02-18 17:23:00,
2013-02-18 11:28:00,72.7,64.3,29.88,SSE,158,12.0,23.0,75,0.00,,---,0.00,VWS V14.01,2013-02-18 17:28:00,
2013-02-18 11:33:00,72.7,63.9,29.88,South,170,12.0,19.0,74,0.00,,---,0.00,VWS V14.01,2013-02-18 17:33:00,
2013-02-18 11:38:00,72.7,64.3,29.88,South,187,15.0,20.0,75,0.00,,---,0.00,VWS V14.01,2013-02-18 17:38:00,
2013-02-18 11:43:00,72.8,64.0,29.88,SSE,159,7.0,20.0,74,0.00,,---,0.00,VWS V14.01,2013-02-18 17:43:00,
2013-02-18 11:48:00,72.8,64.0,29.89,SSE,156,12.0,20.0,74,0.00,,---,0.00,VWS V14.01,2013-02-18 17:48:00,
2013-02-18 11:53:00,72.7,63.9,29.89,South,176,12.0,20.0,74,0.00,,---,0.00,VWS V14.01,2013-02-18 17:53:00,
2013-02-18 11:58:00,72.7,64.3,29.89,South,174,11.0,20.0,75,0.00,,---,0.00,VWS V14.01,2013-02-18 17:58:00,
2013-02-18 12:03:00,72.8,64.0,29.89,SSW,201,3.0,17.0,74,0.00,,---,0.00,VWS V14.01,2013-02-18 18:03:00,
2013-02-18 12:08:00,73.0,64.2,29.89,SSE,150,16.0,18.0,74,0.00,,---,0.00,VWS V14.01,2013-02-18 18:08:00,
2013-02-18 12:13:00,73.2,64.4,29.89,South,170,11.0,19.0,74,0.00,,---,0.00,VWS V14.01,2013-02-18 18:13:00,
2013-02-18 12:18:00,73.3,64.5,29.88,SSE,160,4.0,17.0,74,0.00,,---,0.00,VWS V14.01,2013-02-18 18:18:00,
2013-02-18 12:23:00,73.7,64.5,29.88,South,184,7.0,18.0,73,0.00,,---,0.00,VWS V14.01,2013-02-18 18:23:00,
2013-02-18 12:28:00,74.4,64.8,29.88,SSE,152,12.0,19.0,72,0.00,,---,0.00,VWS V14.01,2013-02-18 18:28:00,
2013-02-18 12:33:00,74.9,64.9,29.87,South,172,15.0,17.0,71,0.00,,---,0.00,VWS V14.01,2013-02-18 18:33:00,
2013-02-18 12:38:00,75.4,64.5,29.87,South,169,7.0,22.0,69,0.00,,---,0.00,VWS V14.01,2013-02-18 18:38:00,
2013-02-18 12:43:00,75.8,64.9,29.87,SSE,150,7.0,22.0,69,0.00,,---,0.00,VWS V14.01,2013-02-18 18:43:00,
2013-02-18 12:48:00,75.8,64.9,29.86,SSE,163,10.0,22.0,69,0.00,,---,0.00,VWS V14.01,2013-02-18 18:48:00,
2013-02-18 12:54:00,75.6,64.7,29.86,SSE,166,11.0,22.0,69,0.00,,---,0.00,VWS V14.01,2013-02-18 18:54:00,
2013-02-18 12:59:00,76.0,65.1,29.86,SSE,158,14.0,22.0,69,0.00,,---,0.00,VWS V14.01,2013-02-18 18:59:00,
2013-02-18 13:04:00,76.7,65.3,29.85,SSE,165,22.0,22.0,68,0.00,,---,0.00,VWS V14.01,2013-02-18 19:04:00,
2013-02-18 13:09:00,76.8,65.4,29.85,SE,125,19.0,22.0,68,0.00,,---,0.00,VWS V14.01,2013-02-18 19:09:00,
2013-02-18 13:14:00,77.2,65.8,29.85,SE,142,10.0,22.0,68,0.00,,---,0.00,VWS V14.01,2013-02-18 19:14:00,
2013-02-18 13:19:00,77.2,65.8,29.85,SE,146,8.0,18.0,68,0.00,,---,0.00,VWS V14.01,2013-02-18 19:19:00,
2013-02-18 13:24:00,77.6,65.8,29.85,SE,142,13.0,20.0,67,0.00,,---,0.00,VWS V14.01,2013-02-18 19:24:00,
2013-02-18 13:29:00,77.4,65.2,29.85,SSE,156,10.0,20.0,66,0.00,,---,0.00,VWS V14.01,2013-02-18 19:29:00,
2013-02-18 13:34:00,77.0,65.2,29.86,SE,139,8.0,20.0,67,0.00,,---,0.00,VWS V14.01,2013-02-18 19:34:00,
2013-02-18 13:39:00,76.7,65.3,29.86,South,179,13.0,22.0,68,0.00,,---,0.00,VWS V14.01,2013-02-18 19:39:00,
2013-02-18 13:44:00,77.0,65.6,29.86,SSE,156,10.0,22.0,68,0.00,,---,0.00,VWS V14.01,2013-02-18 19:44:00,
2013-02-18 13:49:00,77.4,65.6,29.84,SE,142,12.0,21.0,67,0.00,,---,0.00,VWS V14.01,2013-02-18 19:49:00,
2013-02-18 13:54:00,77.6,65.3,29.84,SSE,160,10.0,21.0,66,0.00,,---,0.00,VWS V14.01,2013-02-18 19:54:00,
2013-02-18 13:59:00,77.6,65.3,29.84,SSE,162,26.0,26.0,66,0.00,,---,0.00,VWS V14.01,2013-02-18 19:59:00,
2013-02-18 14:04:00,76.8,65.4,29.82,SE,126,11.0,26.0,68,0.00,,---,0.00,VWS V14.01,2013-02-18 20:04:00,
2013-02-18 14:09:00,76.7,64.9,29.82,SE,143,9.0,28.0,67,0.00,,---,0.00,VWS V14.01,2013-02-18 20:09:00,
2013-02-18 14:14:00,77.0,64.8,29.81,SSW,201,13.0,28.0,66,0.00,,---,0.00,VWS V14.01,2013-02-18 20:14:00,
2013-02-18 14:19:00,76.7,64.9,29.81,ESE,119,14.0,30.0,67,0.00,,---,0.00,VWS V14.01,2013-02-18 20:19:00,
2013-02-18 14:24:00,76.5,65.2,29.81,SSE,163,7.0,30.0,68,0.00,,---,0.00,VWS V14.01,2013-02-18 20:24:00,
2013-02-18 14:29:00,76.8,64.6,29.82,SW,221,11.0,30.0,66,0.00,,---,0.00,VWS V14.01,2013-02-18 20:29:00,
2013-02-18 14:34:00,76.8,64.6,29.82,SSE,163,12.0,26.0,66,0.00,,---,0.00,VWS V14.01,2013-02-18 20:34:00,
2013-02-18 14:39:00,77.2,64.5,29.82,SSE,160,8.0,26.0,65,0.00,,---,0.00,VWS V14.01,2013-02-18 20:39:00,
2013-02-18 14:44:00,77.6,64.9,29.81,South,182,14.0,26.0,65,0.00,,---,0.00,VWS V14.01,2013-02-18 20:44:00,
2013-02-18 14:49:00,77.2,64.5,29.81,South,174,22.0,27.0,65,0.00,,---,0.00,VWS V14.01,2013-02-18 20:49:00,
2013-02-18 14:54:00,77.0,64.3,29.81,ESE,121,15.0,27.0,65,0.00,,---,0.00,VWS V14.01,2013-02-18 20:54:00,
2013-02-18 14:59:00,76.7,64.1,29.81,SE,142,14.0,27.0,65,0.00,,---,0.00,VWS V14.01,2013-02-18 20:59:00,
2013-02-18 15:04:00,76.3,64.1,29.81,South,184,21.0,26.0,66,0.00,,---,0.00,VWS V14.01,2013-02-18 21:04:00,
2013-02-18 15:09:00,76.1,63.9,29.81,SE,142,12.0,27.0,66,0.00,,---,0.00,VWS V14.01,2013-02-18 21:09:00,
2013-02-18 15:14:00,76.1,63.9,29.81,SSE,156,12.0,27.0,66,0.00,,---,0.00,VWS V14.01,2013-02-18 21:14:00,
2013-02-18 15:19:00,76.5,63.9,29.81,South,183,7.0,21.0,65,0.00,,---,0.00,VWS V14.01,2013-02-18 21:19:00,
2013-02-18 15:24:00,76.1,63.5,29.81,SSE,158,8.0,25.0,65,0.00,,---,0.00,VWS V14.01,2013-02-18 21:24:00,
2013-02-18 15:29:00,76.0,63.4,29.80,South,191,11.0,25.0,65,0.00,,---,0.00,VWS V14.01,2013-02-18 21:29:00,
2013-02-18 15:34:00,76.0,63.4,29.80,SSE,165,17.0,23.0,65,0.00,,---,0.00,VWS V14.01,2013-02-18 21:34:00,
2013-02-18 15:39:00,75.8,63.2,29.80,SSW,208,18.0,25.0,65,0.00,,---,0.00,VWS V14.01,2013-02-18 21:39:00,
2013-02-18 15:45:00,75.4,63.3,29.80,SE,145,19.0,32.0,66,0.00,,---,0.00,VWS V14.01,2013-02-18 21:45:00,
2013-02-18 15:50:00,75.6,63.5,29.80,SSE,148,16.0,21.0,66,0.00,,---,0.00,VWS V14.01,2013-02-18 21:50:00,
2013-02-18 15:55:00,75.3,63.2,29.80,ESE,112,11.0,23.0,66,0.00,,---,0.00,VWS V14.01,2013-02-18 21:55:00,
2013-02-18 16:00:00,75.4,62.8,29.80,ESE,121,13.0,23.0,65,0.00,,---,0.00,VWS V14.01,2013-02-18 22:00:00,
2013-02-18 16:05:00,75.4,62.8,29.80,SE,135,9.0,22.0,65,0.00,,---,0.00,VWS V14.01,2013-02-18 22:05:00,
2013-02-18 16:10:00,75.1,63.0,29.80,ESE,107,9.0,28.0,66,0.00,,---,0.00,VWS V14.01,2013-02-18 22:10:00,
2013-02-18 16:15:00,75.3,62.7,29.80,South,180,8.0,28.0,65,0.00,,---,0.00,VWS V14.01,2013-02-18 22:15:00,
2013-02-18 16:20:00,75.3,62.7,29.80,South,172,10.0,23.0,65,0.00,,---,0.00,VWS V14.01,2013-02-18 22:20:00,
2013-02-18 16:25:00,75.1,62.5,29.80,South,170,17.0,26.0,65,0.00,,---,0.00,VWS V14.01,2013-02-18 22:25:00,
2013-02-18 16:30:00,74.9,62.8,29.80,South,180,7.0,26.0,66,0.00,,---,0.00,VWS V14.01,2013-02-18 22:30:00,
2013-02-18 16:35:00,74.7,62.6,29.80,SSE,155,7.0,22.0,66,0.00,,---,0.00,VWS V14.01,2013-02-18 22:35:00,
2013-02-18 16:40:00,74.9,62.8,29.80,ESE,117,13.0,22.0,66,0.00,,---,0.00,VWS V14.01,2013-02-18 22:40:00,
2013-02-18 16:45:00,74.6,62.9,29.80,South,179,15.0,23.0,67,0.00,,---,0.00,VWS V14.01,2013-02-18 22:45:00,
2013-02-18 16:50:00,74.4,62.7,29.80,ESE,115,13.0,20.0,67,0.00,,---,0.00,VWS V14.01,2013-02-18 22:50:00,
2013-02-18 16:55:00,74.0,62.4,29.80,SSE,156,11.0,23.0,67,0.00,,---,0.00,VWS V14.01,2013-02-18 22:55:00,
2013-02-18 17:00:00,74.0,62.8,29.80,SSE,149,8.0,23.0,68,0.00,,---,0.00,VWS V14.01,2013-02-18 23:00:00,
2013-02-18 17:05:00,73.9,62.7,29.80,South,186,9.0,20.0,68,0.00,,---,0.00,VWS V14.01,2013-02-18 23:05:00,
2013-02-18 17:10:00,74.0,62.8,29.80,South,190,8.0,20.0,68,0.00,,---,0.00,VWS V14.01,2013-02-18 23:10:00,
2013-02-18 17:15:00,73.9,62.7,29.80,SSE,167,14.0,22.0,68,0.00,,---,0.00,VWS V14.01,2013-02-18 23:15:00,
2013-02-18 17:20:00,73.5,62.3,29.80,ESE,110,9.0,21.0,68,0.00,,---,0.00,VWS V14.01,2013-02-18 23:20:00,
2013-02-18 17:25:00,73.5,62.7,29.80,SSE,148,6.0,28.0,69,0.00,,---,0.00,VWS V14.01,2013-02-18 23:25:00,
2013-02-18 17:30:00,73.3,62.5,29.81,SE,131,17.0,28.0,69,0.00,,---,0.00,VWS V14.01,2013-02-18 23:30:00,
2013-02-18 17:35:00,73.2,62.4,29.81,South,184,9.0,22.0,69,0.00,,---,0.00,VWS V14.01,2013-02-18 23:35:00,
2013-02-18 17:40:00,73.0,62.2,29.81,SSW,200,16.0,22.0,69,0.00,,---,0.00,VWS V14.01,2013-02-18 23:40:00,
2013-02-18 17:45:00,72.7,62.4,29.81,South,177,7.0,22.0,70,0.00,,---,0.00,VWS V14.01,2013-02-18 23:45:00,
2013-02-18 17:50:00,72.5,62.2,29.81,South,169,12.0,18.0,70,0.00,,---,0.00,VWS V14.01,2013-02-18 23:50:00,
2013-02-18 17:55:00,72.1,62.2,29.81,SSE,148,12.0,18.0,71,0.00,,---,0.00,VWS V14.01,2013-02-18 23:55:00,
2013-02-18 18:00:00,71.8,62.3,29.82,SSE,153,9.0,18.0,72,0.00,,---,0.00,VWS V14.01,2013-02-19 00:00:00,
2013-02-18 18:05:00,71.6,62.1,29.82,SSW,193,11.0,15.0,72,0.00,,---,0.00,VWS V14.01,2013-02-19 00:05:00,
2013-02-18 18:10:00,71.3,62.2,29.82,South,169,8.0,18.0,73,0.00,,---,0.00,VWS V14.01,2013-02-19 00:10:00,
2013-02-18 18:15:00,71.1,62.0,29.83,South,174,8.0,19.0,73,0.00,,---,0.00,VWS V14.01,2013-02-19 00:15:00,
2013-02-18 18:20:00,70.8,62.1,29.83,South,187,7.0,14.0,74,0.00,,---,0.00,VWS V14.01,2013-02-19 00:20:00,
2013-02-18 18:25:00,70.6,61.9,29.83,SSE,153,11.0,18.0,74,0.00,,---,0.00,VWS V14.01,2013-02-19 00:25:00,
2013-02-18 18:30:00,70.4,62.1,29.83,South,172,7.0,18.0,75,0.00,,---,0.00,VWS V14.01,2013-02-19 00:30:00,
2013-02-18 18:35:00,70.3,62.0,29.83,SSE,165,7.0,16.0,75,0.00,,---,0.00,VWS V14.01,2013-02-19 00:35:00,
2013-02-18 18:40:00,70.1,61.8,29.83,SSE,163,4.0,16.0,75,0.00,,---,0.00,VWS V14.01,2013-02-19 00:40:00,
2013-02-18 18:45:00,70.1,62.2,29.84,South,183,4.0,5.0,76,0.00,,---,0.00,VWS V14.01,2013-02-19 00:45:00,
2013-02-18 18:50:00,69.9,62.0,29.84,SSW,193,6.0,16.0,76,0.00,,---,0.00,VWS V14.01,2013-02-19 00:50:00,
2013-02-18 18:55:00,69.9,62.0,29.84,SE,138,19.0,19.0,76,0.00,,---,0.00,VWS V14.01,2013-02-19 00:55:00,
2013-02-18 19:00:00,69.8,62.3,29.85,South,177,8.0,12.0,77,0.00,,---,0.00,VWS V14.01,2013-02-19 01:00:00,
2013-02-18 19:05:00,69.8,62.3,29.85,South,170,6.0,17.0,77,0.00,,---,0.00,VWS V14.01,2013-02-19 01:05:00,
2013-02-18 19:10:00,69.6,62.1,29.85,SSE,158,5.0,17.0,77,0.00,,---,0.00,VWS V14.01,2013-02-19 01:10:00,
2013-02-18 19:15:00,69.4,62.2,29.85,South,184,13.0,14.0,78,0.00,,---,0.00,VWS V14.01,2013-02-19 01:15:00,
2013-02-18 19:20:00,69.3,62.2,29.85,SSE,149,16.0,18.0,78,0.00,,---,0.00,VWS V14.01,2013-02-19 01:20:00,